Regional Weather Roundup
Issued by NWS

Home | Current Version | Previous Version | Text Only | Print | Product List | Glossary On
Versions: 1 2 3 4 5 6 7 8 9 10 11 12 13 14 15 16 17 18 19 20 21 22 23 24 25 26 27 28 29 30 31 32 33 34 35 36 37 38 39 40 41 42 43 44 45 46 47 48 49 50
000
ASUS43 KDMX 102007
RWRIA

WEATHER ROUNDUP FOR IOWA
NATIONAL WEATHER SERVICE DES MOINES IA
300 PM CDT THU JUL 10 2014

NOTE: "FAIR" INDICATES FEW OR NO CLOUDS BELOW 12,000 FEET WITH NO
SIGNIFICANT WEATHER AND/OR OBSTRUCTIONS TO VISIBILITY.

* - THESE STATIONS ARE NOT NWS STATIONS...THUS NOT UNDER NWS
QUALITY CONTROL.  THEY ALSO DO NOT REPORT WEATHER SUCH
AS PRECIPITATION OR FOG.

IAZ001>003-012>014-020>022-031>034-043>046-102100-
   NORTHWEST IOWA

CITY           SKY/WX    TMP DP  RH WIND       PRES   REMARKS
CARROLL *      MOSUNNY   81  63  54 S15       30.02F HX  82
CHEROKEE *     MOSUNNY   82  66  57 S20       29.99S HX  85
DENISON *      SUNNY     81  66  61 S15G24    29.98F HX  83
LE MARS *      MOSUNNY   84  66  54 S18       29.97S HX  86
ORANGE CITY *  SUNNY     84  61  45 S18       29.98S HX  84
SHELDON *      MOSUNNY   82  64  54 S20       29.98R HX  84
SIOUX CITY     MOSUNNY   85  67  54 S12G26    29.96S HX  87
SPENCER        MOSUNNY   82  63  52 S17G25    30.00F HX  83
STORM LAKE *   SUNNY     81  66  61 S17G25    30.01F HX  83
$$

IAZ055>058-069>071-079>083-090>094-102100-
   SOUTHWEST IOWA

CITY           SKY/WX    TMP DP  RH WIND       PRES   REMARKS
ATLANTIC *     SUNNY     82  63  51 S15       30.02F HX  83
AUDUBON *      SUNNY     84  66  54 S17       30.04F HX  86
CLARINDA *     MOSUNNY   82  66  57 SE10G20   30.05S HX  85
COUNCIL BLFS * SUNNY     82  70  65 S16G26    29.99F HX  86
CRESTON *      SUNNY     79  63  57 SE16G24   30.06F HX  80
HARLAN  *      SUNNY     82  66  57 S17G24    30.04F HX  85
LAMONI         SUNNY     80  55  42 SE13G21   30.07F HX  80
RED OAK *      SUNNY     82  66  57 S15       30.02F HX  85
SHENANDOAH *   MOSUNNY   82  68  61 SE16      30.02F HX  85
$$

IAZ047>049-059>061-072>074-084-102100-
   CENTRAL IOWA

CITY           SKY/WX    TMP DP  RH WIND       PRES   REMARKS
AMES           SUNNY     81  60  48 S14G22    30.05F HX  82
ANKENY *       SUNNY     81  61  50 S12G20    30.06F HX  81
CHARITON *     SUNNY     81  59  47 SE15      30.08F HX  81
DES MOINES     MOSUNNY   84  56  38 S18       30.06F HX  83
GRINNELL*      SUNNY     81  57  44 S14       30.10F HX  81
KNOXVILLE *    SUNNY     81  59  47 S10       30.07F HX  81
MARSHALLTOWN   SUNNY     80  58  46 S12G22    30.08F HX  80
PELLA *        SUNNY     82  61  47 SE10      30.10F HX  83
PERRY *          N/A     82  61  47 S15G23    30.04F HX  83
$$

IAZ004>006-015-016-023>025-035-036-102100-
   NORTH CENTRAL IOWA

CITY           SKY/WX    TMP DP  RH WIND       PRES   REMARKS
ALGONA *       SUNNY     82  61  47 S17G26    30.02F HX  83
CLARION *      SUNNY     82  59  44 S16       30.04F HX  82
ESTHERVILLE    SUNNY     81  60  48 S21G29    30.00F HX  82
FORT DODGE *   SUNNY     81  61  50 S14G20    30.04F HX  81
MASON CITY     SUNNY     83  58  42 S14       30.07F HX  83
FOREST CITY *  SUNNY     81  59  47 S18       30.04F HX  81
IOWA FALLS *     N/A     81  57  44 S16       30.08F HX  81
$$

IAZ007>011-017>019-026>030-037>042-050>054-066-102100-
   NORTHEAST IOWA

CITY           SKY/WX    TMP DP  RH WIND       PRES   REMARKS
CEDAR RAPIDS   SUNNY     81  57  43 S10       30.10F HX  81
CHARLES CITY * SUNNY     79  61  53 S12       30.08F HX  80
CLINTON *      PTSUNNY   79  61  53 SE5       30.15F HX  80
DECORAH *        N/A    N/A N/A N/A MISG        N/A
DUBUQUE        CLOUDY    76  60  57 S9        30.13F
MONTICELLO *   MOSUNNY   81  61  50 S8        30.12S HX  81
OELWEIN *      MOSUNNY   81  59  47 S10       30.11F HX  81
WATERLOO       SUNNY     82  57  42 S15       30.07F HX  82
$$

IAZ064-065-067-068-078-102100-
   EAST CENTRAL IOWA

CITY           SKY/WX    TMP DP  RH WIND       PRES   REMARKS
DAVENPORT      PTSUNNY   79  60  52 S7        30.13S HX  80
IOWA CITY      MOSUNNY   81  61  50 SE9       30.12F HX  82
MT. PLEASANT * SUNNY     82  55  39 S7        30.12F HX  82
MUSCATINE *    SUNNY     82  57  42 S7G15     30.12S HX  82
QUAD CITIES    SUNNY     81  58  45 SE8G16    30.12S HX  81
$$

IAZ062-063-075>077-085>089-095>099-102100-
   SOUTHEAST IOWA

CITY           SKY/WX    TMP DP  RH WIND       PRES   REMARKS
BURLINGTON     SUNNY     81  59  47 S10       30.12F HX  81
FAIRFIELD *    SUNNY     81  59  47 S8        30.12S HX  81
FORT MADISON * MOSUNNY   82  57  42 S5        30.13F HX  82
KEOKUK *       MOSUNNY   79  57  47 VRB6G17   30.11F HX  80
OSKALOOSA *      N/A     82  57  42 S12       30.10F HX  82
CENTERVILLE *  SUNNY     79  59  50 SE8       30.12F HX  80
OTTUMWA        SUNNY     80  60  50 SE10      30.09F HX  81
WASHINGTON *   MOSUNNY   81  61  50 S8        30.12S HX  81
$$

ABBREVIATIONS USED IN REMARKS
   TC - TEMPERATURES IN CELSIUS
  WCI - WIND CHILL INDEX
   HX - HEAT INDEX
  VSB - VISIBILITY
$$



USA.gov is the U.S. government's official web portal to all federal, state and local government web resources and services.